Location: Caltech
(34.1382°N, 118.1253°W)
Time: 06:17:18
(UTC-08:00)

SEDSat Delta rocket - Visible Passes

Search period start: 25 January 2015 00:00
Search period end: 04 February 2015 00:00
Orbit: 534 x 1008 km, 31.4° (Epoch: 24 January)

Date Brightness Start Highest point End Pass type
(mag) Time Alt. Az. Time Alt. Az. Time Alt. Az.
25 Jan 6.6 02:57:01 14° E 02:57:01 14° E 02:57:52 10° E visible
25 Jan 4.0 04:37:12 66° SW 04:37:54 71° S 04:44:33 10° E visible
25 Jan 4.4 06:17:55 10° W 06:24:34 57° SSW 06:30:44 10° ESE visible
26 Jan 4.7 03:59:53 50° ESE 03:59:53 50° ESE 04:04:52 10° E visible
26 Jan 4.3 05:40:05 20° W 05:44:49 61° SSW 05:51:14 10° ESE visible
27 Jan 5.9 03:22:34 24° E 03:22:34 24° E 03:25:08 10° E visible
27 Jan 4.2 05:02:46 42° WSW 05:05:03 64° S 05:11:39 10° ESE visible
28 Jan 6.8 02:45:15 10° E 02:45:15 10° E 02:45:21 10° E visible
28 Jan 4.1 04:25:27 67° S 04:25:27 67° S 04:32:00 10° ESE visible
28 Jan 4.9 06:05:38 11° W 06:11:46 39° SSW 06:17:46 10° SE visible
29 Jan 5.1 03:48:09 39° ESE 03:48:09 39° ESE 03:52:17 10° ESE visible
29 Jan 4.7 05:28:21 24° WSW 05:32:03 43° SSW 05:38:18 10° SE visible
30 Jan 6.2 03:10:52 18° ESE 03:10:52 18° ESE 03:12:31 10° ESE visible
30 Jan 4.4 04:51:04 43° SW 04:52:18 47° SSW 04:58:45 10° SE visible
31 Jan 4.7 04:13:49 45° SSE 04:13:49 45° SSE 04:19:07 10° ESE visible
31 Jan 5.5 05:54:02 11° WSW 05:58:49 23° SSW 06:03:50 10° SSE visible
01 Feb 5.7 03:36:38 25° SE 03:36:38 25° SE 03:39:25 10° ESE visible
01 Feb 5.3 05:16:50 22° SW 05:19:07 26° SSW 05:24:31 10° SSE visible
02 Feb 6.7 02:59:28 11° ESE 02:59:28 11° ESE 02:59:39 10° ESE visible
02 Feb 5.1 04:39:41 29° SSW 04:39:41 29° SSW 04:45:05 10° SSE visible
03 Feb 5.7 04:02:35 23° SSE 04:02:35 23° SSE 04:05:33 10° SE visible
03 Feb 6.0 05:44:25 10° SW 05:45:49 10° SSW 05:46:52 10° SSW visible
